Weather in Voskresenka

Russia / Samara Oblast     53°03′22″N   50°00′55″E
В апреле 2022 года жителям России запретили посещать сайт meteo.paraplan.net по решению Генеральной прокуратуры. Аудитория сайта уменьшилась в 10 раз. Владельцы сайта не видят смысла в поддержке погодного сервера в таких условиях. Сайт будет закрыт в октябре.
temp.,
°C
wind,
m/s
gust,
m/s
humid.,
%
clouds,
%
prec.,
mm/h
press.,
hPa
HPBL,
m
30 september, fri
fri3001:00+13ene1196100 0.0 101512
04:00+12ne2294100 0.0 101787
07:00+10ene348899 0.0 1020205
10:00+11ene347982 0.0 1021396
13:00+14ne337161 0.0 1022615
16:00+15ne336581 0.0 1022814
19:00+12ene347981 0.0 102374
22:00+11ene3487100 0.0 102471
1 october, sat
sat101:00+10e3489100 0.0 102485
04:00+9ene3484100 0.0 102497
07:00+8ene338490 0.0 102574
10:00+12e336419 0.0 1025327
13:00+17se22545 0.0 1023740
16:00+18sse22515 0.0 1022989
19:00+14se226955 0.0 102213
22:00+13se227420 0.0 102122
2 october, sun
sun201:00+12se3478100 0.0 102062
04:00+13sse4978100 0.0 1019186
07:00+12sse5117131 0.0 1019216
10:00+17s6105162 0.0 1018420
13:00+19s61055100 0.3 1017659
16:00+19s61158100 0.4 1016711
19:00+15sse51385100 0.0 1017376
22:00+15sse51378100 0.1 1015332
3 october, mon
mon301:00+15sse41080100 1.3 1015258
04:00+15sse41184100 1.8 1015372
07:00+14sse61370100 0.1 1016338
10:00+17sse8145039 0.1 1016575
13:00+21s9133623 0.0 10171040
16:00+20s81437100 0.0 10181023
19:00+17sse8153880 0.0 1020729
22:00+15sse81735100 0.0 1020680
4 october, tue
tue401:00+15sse71729100 0.0 1021724
04:00+13sse71630100 0.0 1022579
07:00+12sse71630100 0.0 1022493
10:00+15sse81427100 0.0 1023713
13:00+18sse91123100 0.0 10241152
16:00+18sse71023100 0.0 10241535
19:00+15sse41025100 0.0 1026345
22:00+14ssw4928100 0.0 1027481